QXE2312 KPHX-KSAN

Flight info

Callsign QXE2312
Flight time 0h 57m
Altitude 28000
Route FYRBD1 MOHAK J2 HOGGZ LUCKI1
Aircraft E75L/M-SDE3GILORVW/S

Departure

Time 2026-05-04 01:46
Airport Phoenix Sky Harbor International Airport (KPHX)

Arrival

Time 2026-05-04 02:44
Airport San Diego International Airport (KSAN)
Time Latitude Longitude Altitude Speed Heading
2026-05-04 01:26 33.43786 -112.00933 1128 ft 0 kts 103°
2026-05-04 01:34 33.43789 -112.00948 1119 ft 4 kts 97°
2026-05-04 01:34 33.43788 -112.00980 1122 ft 4 kts 77°
2026-05-04 01:34 33.43777 -112.01008 1117 ft 4 kts 49°
2026-05-04 01:34 33.43756 -112.01023 1121 ft 3 kts
2026-05-04 01:35 33.43753 -112.01024 1122 ft 2 kts
2026-05-04 01:37 33.43759 -112.01024 1122 ft 2 kts
2026-05-04 01:37 33.43783 -112.01023 1123 ft 5 kts
2026-05-04 01:38 33.43828 -112.01023 1123 ft 8 kts
2026-05-04 01:38 33.43888 -112.01004 1128 ft 10 kts 45°
2026-05-04 01:38 33.43901 -112.00919 1128 ft 12 kts 90°
2026-05-04 01:38 33.43901 -112.00811 1128 ft 14 kts 90°
2026-05-04 01:39 33.43900 -112.00686 1128 ft 16 kts 90°
2026-05-04 01:39 33.43900 -112.00542 1128 ft 18 kts 90°
2026-05-04 01:39 33.43903 -112.00381 1128 ft 20 kts 87°
2026-05-04 01:39 33.43904 -112.00216 1129 ft 20 kts 90°
2026-05-04 01:40 33.43905 -112.00038 1129 ft 22 kts 90°
2026-05-04 01:40 33.43904 -111.99845 1129 ft 24 kts 89°
2026-05-04 01:40 33.43904 -111.99639 1129 ft 25 kts 90°
2026-05-04 01:40 33.43905 -111.99431 1129 ft 18 kts 89°
2026-05-04 01:41 33.43904 -111.99355 1129 ft 6 kts 91°
2026-05-04 01:41 33.43881 -111.99302 1131 ft 8 kts 153°
2026-05-04 01:41 33.43852 -111.99295 1129 ft 0 kts 173°
2026-05-04 01:41 33.43834 -111.99281 1130 ft 8 kts 142°
2026-05-04 01:42 33.43773 -111.99238 1126 ft 11 kts 163°
2026-05-04 01:42 33.43685 -111.99230 1126 ft 14 kts 180°
2026-05-04 01:42 33.43585 -111.99230 1124 ft 15 kts 180°
2026-05-04 01:42 33.43478 -111.99230 1124 ft 15 kts 180°
2026-05-04 01:43 33.43369 -111.99230 1125 ft 16 kts 180°
2026-05-04 01:43 33.43275 -111.99230 1130 ft 12 kts 180°
2026-05-04 01:43 33.43207 -111.99266 1132 ft 9 kts 224°
2026-05-04 01:43 33.43197 -111.99279 1132 ft 0 kts 224°
2026-05-04 01:44 33.43196 -111.99279 1132 ft 0 kts 224°
2026-05-04 01:44 33.43175 -111.99304 1132 ft 9 kts 224°
2026-05-04 01:44 33.43122 -111.99368 1134 ft 11 kts 232°
2026-05-04 01:45 33.43104 -111.99459 1133 ft 6 kts 270°
2026-05-04 01:45 33.43104 -111.99462 1133 ft 2 kts 270°
2026-05-04 01:45 33.43105 -112.00237 1132 ft 94 kts 270°
2026-05-04 01:46 33.43104 -112.01190 1136 ft 132 kts 269°
2026-05-04 01:46 33.43094 -112.02382 1509 ft 153 kts 268°
2026-05-04 01:46 33.43049 -112.03714 2045 ft 170 kts 262°
2026-05-04 01:46 33.42940 -112.05229 2383 ft 198 kts 262°
2026-05-04 01:47 33.42966 -112.06956 2357 ft 206 kts 269°
2026-05-04 01:47 33.43097 -112.08640 2431 ft 201 kts 270°
2026-05-04 01:47 33.42978 -112.10275 2567 ft 197 kts 250°
2026-05-04 01:47 33.42545 -112.11828 2742 ft 199 kts 246°
2026-05-04 01:48 33.41990 -112.13307 2957 ft 190 kts 241°
2026-05-04 01:48 33.41358 -112.14683 3315 ft 183 kts 239°
2026-05-04 01:48 33.40686 -112.16100 3744 ft 213 kts 239°
2026-05-04 01:48 33.39802 -112.17688 4195 ft 243 kts 225°
2026-05-04 01:49 33.38304 -112.18638 4624 ft 256 kts 193°
2026-05-04 01:49 33.36508 -112.18454 5021 ft 264 kts 167°
2026-05-04 01:49 33.34783 -112.17640 5381 ft 265 kts 163°
2026-05-04 01:49 33.33049 -112.16925 5764 ft 265 kts 167°
2026-05-04 01:50 33.31264 -112.16421 6111 ft 262 kts 181°
2026-05-04 01:50 33.29538 -112.16971 6466 ft 256 kts 213°
2026-05-04 01:50 33.28326 -112.18532 6875 ft 255 kts 233°
2026-05-04 01:50 33.27179 -112.20201 7268 ft 266 kts 226°
2026-05-04 01:51 33.25919 -112.21820 7647 ft 267 kts 224°
2026-05-04 01:51 33.24640 -112.23423 8012 ft 265 kts 224°
2026-05-04 01:51 33.23357 -112.25007 8345 ft 267 kts 224°
2026-05-04 01:51 33.22069 -112.26639 8706 ft 271 kts 227°
2026-05-04 01:52 33.20875 -112.28397 9089 ft 274 kts 229°
2026-05-04 01:52 33.19708 -112.30197 9477 ft 277 kts 229°
2026-05-04 01:52 33.18532 -112.32020 9842 ft 279 kts 229°
2026-05-04 01:52 33.17350 -112.33861 10195 ft 282 kts 229°
2026-05-04 01:53 33.16120 -112.35766 10570 ft 297 kts 231°
2026-05-04 01:53 33.14844 -112.37757 10945 ft 304 kts 231°
2026-05-04 01:53 33.13557 -112.39755 11310 ft 304 kts 231°
2026-05-04 01:53 33.12270 -112.41747 11701 ft 303 kts 231°
2026-05-04 01:54 33.10975 -112.43753 12196 ft 306 kts 231°
2026-05-04 01:54 33.09673 -112.45765 12709 ft 308 kts 231°
2026-05-04 01:54 33.08373 -112.47777 13222 ft 306 kts 232°
2026-05-04 01:54 33.07070 -112.49794 13721 ft 307 kts 232°
2026-05-04 01:55 33.05755 -112.51820 14198 ft 309 kts 232°
2026-05-04 01:55 33.04440 -112.53850 14677 ft 310 kts 232°
2026-05-04 01:55 33.03120 -112.55888 15166 ft 312 kts 232°
2026-05-04 01:55 33.01797 -112.57925 15653 ft 312 kts 233°
2026-05-04 01:56 33.00465 -112.59979 16147 ft 314 kts 233°
2026-05-04 01:56 32.99128 -112.62039 16652 ft 315 kts 233°
2026-05-04 01:56 32.97848 -112.64123 17147 ft 316 kts 241°
2026-05-04 01:56 32.96935 -112.66541 17688 ft 317 kts 249°
2026-05-04 01:57 32.96233 -112.69026 18191 ft 318 kts 252°
2026-05-04 01:57 32.95819 -112.70711 18495 ft 319 kts 253°
2026-05-04 01:57 32.95230 -112.73263 18953 ft 320 kts 254°
2026-05-04 01:57 32.94661 -112.75831 19419 ft 322 kts 255°
2026-05-04 01:58 32.94188 -112.78433 19891 ft 323 kts 259°
2026-05-04 01:58 32.93809 -112.81079 20374 ft 324 kts 260°
2026-05-04 01:58 32.93447 -112.83730 20855 ft 326 kts 260°
2026-05-04 01:58 32.93087 -112.86396 21359 ft 327 kts 260°
2026-05-04 01:59 32.92726 -112.89077 21861 ft 329 kts 260°
2026-05-04 01:59 32.92361 -112.91777 22375 ft 331 kts 261°
2026-05-04 01:59 32.91993 -112.94483 22896 ft 332 kts 261°
2026-05-04 01:59 32.91623 -112.97202 23420 ft 334 kts 261°
2026-05-04 02:00 32.91251 -112.99938 23857 ft 334 kts 261°
2026-05-04 02:00 32.90758 -113.03549 24453 ft 334 kts 261°
2026-05-04 02:00 32.90505 -113.05395 24768 ft 335 kts 261°
2026-05-04 02:00 32.90131 -113.08126 25230 ft 335 kts 261°
2026-05-04 02:01 32.89754 -113.10869 25713 ft 336 kts 261°
2026-05-04 02:01 32.89380 -113.13595 26189 ft 335 kts 261°
2026-05-04 02:01 32.89002 -113.16338 26682 ft 336 kts 261°
2026-05-04 02:01 32.88626 -113.19065 27180 ft 336 kts 261°
2026-05-04 02:02 32.88246 -113.21814 27690 ft 337 kts 261°
2026-05-04 02:02 32.87864 -113.24577 27902 ft 340 kts 261°
2026-05-04 02:02 32.87484 -113.27317 27965 ft 339 kts 261°
2026-05-04 02:02 32.87096 -113.30114 28003 ft 338 kts 261°
2026-05-04 02:03 32.86327 -113.35634 28016 ft 338 kts 261°
2026-05-04 02:03 32.85557 -113.41146 28007 ft 338 kts 261°
2026-05-04 02:04 32.84787 -113.46642 28014 ft 335 kts 261°
2026-05-04 02:04 32.84018 -113.52114 28002 ft 336 kts 261°
2026-05-04 02:05 32.83245 -113.57588 28008 ft 336 kts 261°
2026-05-04 02:05 32.82475 -113.63032 28002 ft 336 kts 261°
2026-05-04 02:06 32.81692 -113.68544 28006 ft 336 kts 261°
2026-05-04 02:06 32.80918 -113.73980 27998 ft 336 kts 261°
2026-05-04 02:07 32.80141 -113.79423 28002 ft 334 kts 261°
2026-05-04 02:07 32.79752 -113.82146 27999 ft 334 kts 261°
2026-05-04 02:07 32.79362 -113.84868 28005 ft 334 kts 261°
2026-05-04 02:08 32.78579 -113.90312 28002 ft 334 kts 261°
2026-05-04 02:08 32.77833 -113.95761 28005 ft 334 kts 262°
2026-05-04 02:09 32.77549 -114.01268 28003 ft 334 kts 268°
2026-05-04 02:09 32.77498 -114.06786 28002 ft 335 kts 270°
2026-05-04 02:10 32.77594 -114.09539 27982 ft 333 kts 271°
2026-05-04 02:10 32.77702 -114.12285 27997 ft 333 kts 271°
2026-05-04 02:10 32.77813 -114.15036 28000 ft 333 kts 271°
2026-05-04 02:10 32.77924 -114.17788 27982 ft 333 kts 271°
2026-05-04 02:11 32.78144 -114.23293 28012 ft 334 kts 271°
2026-05-04 02:11 32.78253 -114.26046 27997 ft 334 kts 271°
2026-05-04 02:11 32.78362 -114.28804 27986 ft 334 kts 271°
2026-05-04 02:12 32.78604 -114.34295 28017 ft 336 kts 274°
2026-05-04 02:12 32.79411 -114.39810 27950 ft 332 kts 278°
2026-05-04 02:13 32.79903 -114.42497 27988 ft 334 kts 279°
2026-05-04 02:13 32.80564 -114.45156 28007 ft 337 kts 282°
2026-05-04 02:13 32.82004 -114.50463 28000 ft 337 kts 283°
2026-05-04 02:14 32.82733 -114.53112 27999 ft 337 kts 283°
2026-05-04 02:14 32.83462 -114.55760 28002 ft 337 kts 283°
2026-05-04 02:14 32.84190 -114.58414 27997 ft 337 kts 283°
2026-05-04 02:14 32.84918 -114.61068 28001 ft 337 kts 283°
2026-05-04 02:15 32.85645 -114.63717 27991 ft 337 kts 283°
2026-05-04 02:15 32.86371 -114.66369 27991 ft 337 kts 283°
2026-05-04 02:15 32.86960 -114.69058 27996 ft 334 kts 276°
2026-05-04 02:15 32.87254 -114.71746 27994 ft 333 kts 273°
2026-05-04 02:16 32.87476 -114.74495 27923 ft 333 kts 272°
2026-05-04 02:16 32.87664 -114.77240 27790 ft 338 kts 272°
2026-05-04 02:16 32.87743 -114.80108 27665 ft 346 kts 268°
2026-05-04 02:16 32.87707 -114.82938 27570 ft 346 kts 268°
2026-05-04 02:17 32.87650 -114.85801 27451 ft 345 kts 267°
2026-05-04 02:17 32.87586 -114.88645 27332 ft 345 kts 267°
2026-05-04 02:17 32.87521 -114.91491 27209 ft 344 kts 267°
2026-05-04 02:17 32.87455 -114.94335 27090 ft 344 kts 267°
2026-05-04 02:18 32.87389 -114.97189 26960 ft 345 kts 267°
2026-05-04 02:18 32.87323 -115.00036 26836 ft 344 kts 267°
2026-05-04 02:18 32.87257 -115.02872 26729 ft 342 kts 267°
2026-05-04 02:18 32.87190 -115.05696 26587 ft 342 kts 267°
2026-05-04 02:19 32.87122 -115.08526 26417 ft 343 kts 267°
2026-05-04 02:19 32.87054 -115.11363 26243 ft 342 kts 266°
2026-05-04 02:19 32.86985 -115.14221 26070 ft 342 kts 266°
2026-05-04 02:19 32.86915 -115.17048 25897 ft 342 kts 266°
2026-05-04 02:20 32.86846 -115.19878 25727 ft 342 kts 266°
2026-05-04 02:20 32.86776 -115.22670 25560 ft 342 kts 266°
2026-05-04 02:20 32.86705 -115.25497 25392 ft 342 kts 266°
2026-05-04 02:20 32.86634 -115.28320 25220 ft 342 kts 266°
2026-05-04 02:21 32.86554 -115.31140 25059 ft 342 kts 266°
2026-05-04 02:21 32.86432 -115.33972 24943 ft 339 kts 263°
2026-05-04 02:21 32.86106 -115.36717 24830 ft 337 kts 260°
2026-05-04 02:21 32.85742 -115.39472 24714 ft 337 kts 260°
2026-05-04 02:22 32.85352 -115.42265 24600 ft 337 kts 259°
2026-05-04 02:22 32.84995 -115.44978 24486 ft 337 kts 261°
2026-05-04 02:22 32.84598 -115.47722 24368 ft 337 kts 258°
2026-05-04 02:22 32.84160 -115.50466 24223 ft 337 kts 258°
2026-05-04 02:23 32.83709 -115.53238 24057 ft 337 kts 258°
2026-05-04 02:23 32.83262 -115.55969 23897 ft 337 kts 258°
2026-05-04 02:23 32.82820 -115.58671 23741 ft 337 kts 258°
2026-05-04 02:23 32.82366 -115.61441 23582 ft 337 kts 258°
2026-05-04 02:24 32.81923 -115.64147 23424 ft 337 kts 258°
2026-05-04 02:24 32.81479 -115.66860 23171 ft 334 kts 258°
2026-05-04 02:24 32.81033 -115.69562 22902 ft 333 kts 258°
2026-05-04 02:24 32.80589 -115.72259 22640 ft 332 kts 258°
2026-05-04 02:25 32.80146 -115.74955 22376 ft 332 kts 257°
2026-05-04 02:25 32.79703 -115.77638 22117 ft 331 kts 257°
2026-05-04 02:25 32.79261 -115.80319 21864 ft 330 kts 258°
2026-05-04 02:25 32.78832 -115.82990 21611 ft 329 kts 258°
2026-05-04 02:26 32.78480 -115.85680 21366 ft 329 kts 262°
2026-05-04 02:26 32.78255 -115.88382 21120 ft 329 kts 262°
2026-05-04 02:26 32.78048 -115.91087 20885 ft 329 kts 262°
2026-05-04 02:26 32.77846 -115.93789 20647 ft 328 kts 262°
2026-05-04 02:27 32.77646 -115.96493 20397 ft 331 kts 262°
2026-05-04 02:27 32.77442 -115.99215 20161 ft 331 kts 262°
2026-05-04 02:27 32.77239 -116.01936 19956 ft 330 kts 262°
2026-05-04 02:27 32.77034 -116.04646 19640 ft 330 kts 262°
2026-05-04 02:28 32.76829 -116.07363 19173 ft 329 kts 262°
2026-05-04 02:28 32.76625 -116.10057 18718 ft 327 kts 262°
2026-05-04 02:28 32.76421 -116.12732 18255 ft 326 kts 262°
2026-05-04 02:28 32.76216 -116.15419 17778 ft 327 kts 262°
2026-05-04 02:29 32.76012 -116.18107 17266 ft 326 kts 262°
2026-05-04 02:29 32.75804 -116.20799 16776 ft 327 kts 262°
2026-05-04 02:29 32.75598 -116.23485 16277 ft 326 kts 262°
2026-05-04 02:29 32.75387 -116.26168 15812 ft 326 kts 263°
2026-05-04 02:30 32.75182 -116.28851 15318 ft 318 kts 263°
2026-05-04 02:30 32.74987 -116.31404 14866 ft 312 kts 263°
2026-05-04 02:30 32.74788 -116.33963 14396 ft 312 kts 263°
2026-05-04 02:30 32.74588 -116.36537 13946 ft 313 kts 263°
2026-05-04 02:31 32.74389 -116.39098 13509 ft 311 kts 263°
2026-05-04 02:31 32.74192 -116.41645 12989 ft 307 kts 262°
2026-05-04 02:31 32.73994 -116.44166 12449 ft 306 kts 262°
2026-05-04 02:31 32.73830 -116.46675 11925 ft 302 kts 263°
2026-05-04 02:32 32.73620 -116.49137 11401 ft 299 kts 261°
2026-05-04 02:32 32.73389 -116.51571 10902 ft 294 kts 261°
2026-05-04 02:32 32.73157 -116.53972 10419 ft 291 kts 261°
2026-05-04 02:32 32.72929 -116.56337 9881 ft 287 kts 260°
2026-05-04 02:33 32.72699 -116.58690 9311 ft 285 kts 261°
2026-05-04 02:33 32.72471 -116.61022 8779 ft 284 kts 261°
2026-05-04 02:33 32.72212 -116.63349 8227 ft 283 kts 261°
2026-05-04 02:33 32.72018 -116.65673 7697 ft 283 kts 262°
2026-05-04 02:34 32.71836 -116.67995 7178 ft 282 kts 262°
2026-05-04 02:34 32.71656 -116.70292 6750 ft 276 kts 263°
2026-05-04 02:34 32.71482 -116.72526 6492 ft 264 kts 263°
2026-05-04 02:34 32.71323 -116.74599 6417 ft 241 kts 263°
2026-05-04 02:35 32.71175 -116.76462 6436 ft 213 kts 262°
2026-05-04 02:35 32.71046 -116.78121 6440 ft 190 kts 262°
2026-05-04 02:35 32.70924 -116.79601 6443 ft 171 kts 262°
2026-05-04 02:35 32.70778 -116.80952 6421 ft 160 kts 252°
2026-05-04 02:36 32.70408 -116.82205 6168 ft 160 kts 245°
2026-05-04 02:36 32.69912 -116.83378 5923 ft 156 kts 241°
2026-05-04 02:36 32.69394 -116.84477 5681 ft 151 kts 241°
2026-05-04 02:36 32.68867 -116.85552 5439 ft 148 kts 240°
2026-05-04 02:37 32.68232 -116.86493 5174 ft 149 kts 216°
2026-05-04 02:37 32.67425 -116.87224 4932 ft 147 kts 229°
2026-05-04 02:37 32.66747 -116.88312 4775 ft 181 kts 243°
2026-05-04 02:37 32.66250 -116.89688 4715 ft 182 kts 250°
2026-05-04 02:38 32.65954 -116.91136 4566 ft 179 kts 272°
2026-05-04 02:38 32.66428 -116.92481 4500 ft 180 kts 302°
2026-05-04 02:38 32.67059 -116.93768 4603 ft 182 kts 295°
2026-05-04 02:38 32.67542 -116.95170 4507 ft 184 kts 287°
2026-05-04 02:39 32.67883 -116.96611 4300 ft 180 kts 284°
2026-05-04 02:39 32.68237 -116.98021 4191 ft 177 kts 286°
2026-05-04 02:39 32.68603 -116.99434 4037 ft 181 kts 285°
2026-05-04 02:39 32.68959 -117.00873 3890 ft 184 kts 284°
2026-05-04 02:40 32.69304 -117.02325 3750 ft 179 kts 284°
2026-05-04 02:40 32.69617 -117.03740 3560 ft 178 kts 285°
2026-05-04 02:40 32.69965 -117.05066 3359 ft 158 kts 285°
2026-05-04 02:40 32.70270 -117.06258 3045 ft 145 kts 284°
2026-05-04 02:41 32.70451 -117.07002 2826 ft 140 kts 284°
2026-05-04 02:41 32.70694 -117.08098 2522 ft 135 kts 283°
2026-05-04 02:41 32.70937 -117.09177 2243 ft 137 kts 284°
2026-05-04 02:41 32.71198 -117.10248 1975 ft 134 kts 285°
2026-05-04 02:42 32.71473 -117.11303 1659 ft 133 kts 285°
2026-05-04 02:42 32.71743 -117.12375 1335 ft 137 kts 285°
2026-05-04 02:42 32.71999 -117.13455 1058 ft 137 kts 284°
2026-05-04 02:42 32.72282 -117.14546 789 ft 137 kts 284°
2026-05-04 02:43 32.72571 -117.15619 563 ft 136 kts 284°
2026-05-04 02:43 32.72822 -117.16692 323 ft 133 kts 281°
2026-05-04 02:43 32.73067 -117.17749 101 ft 131 kts 283°
2026-05-04 02:43 32.73298 -117.18735 23 ft 107 kts 285°
2026-05-04 02:44 32.73428 -117.19250 21 ft 43 kts 286°
2026-05-04 02:44 32.73426 -117.19482 25 ft 15 kts 251°
2026-05-04 02:44 32.73407 -117.19574 25 ft 10 kts 267°
2026-05-04 02:44 32.73407 -117.19583 25 ft 0 kts 271°
2026-05-04 02:46 32.73410 -117.19610 24 ft 7 kts 282°
2026-05-04 02:46 32.73430 -117.19692 24 ft 12 kts 286°
2026-05-04 02:46 32.73455 -117.19797 26 ft 14 kts 285°
2026-05-04 02:46 32.73483 -117.19916 24 ft 16 kts 285°
2026-05-04 02:47 32.73517 -117.20061 23 ft 20 kts 286°
2026-05-04 02:47 32.73544 -117.20191 23 ft 12 kts 269°
2026-05-04 02:47 32.73506 -117.20279 21 ft 11 kts 272°
2026-05-04 02:47 32.73532 -117.20387 18 ft 16 kts 286°
2026-05-04 02:48 32.73514 -117.20508 19 ft 14 kts 234°
2026-05-04 02:48 32.73452 -117.20558 20 ft 10 kts 185°
2026-05-04 02:48 32.73378 -117.20562 22 ft 11 kts 195°
2026-05-04 02:48 32.73336 -117.20611 21 ft 7 kts 243°
2026-05-04 02:49 32.73297 -117.20646 24 ft 6 kts 196°
2026-05-04 02:49 32.73273 -117.20649 22 ft 3 kts 181°
2026-05-04 02:49 32.73257 -117.20649 23 ft 2 kts 180°
2026-05-04 02:49 32.73253 -117.20649 23 ft 0 kts 180°